Regional Weather Roundup
Issued by NWS Northern Indiana

Home | Current Version | Previous Version | Text Only | Print | Product List | Glossary Off
Versions: 1 2 3 4 5 6 7 8 9 10 11 12 13 14 15 16 17 18 19 20 21 22 23 24 25 26 27 28 29 30 31 32 33 34 35 36 37 38 39 40 41 42 43 44 45 46 47 48 49 50

000
ASUS43 KIWX 250900
RWRIWX

KIWX WEATHER ROUNDUP
NATIONAL WEATHER SERVICE NORTHERN INDIANA
500 AM EDT MON JUL 25 2016

NOTE: "FAIR" INDICATES FEW OR NO CLOUDS BELOW 12,000 FEET WITH NO
SIGNIFICANT WEATHER AND/OR OBSTRUCTIONS TO VISIBILITY.

* THESE STATIONS ARE NOT UNDER NWS QUALITY CONTROL. THEY ALSO MAY NOT
  REPORT WEATHER SUCH AS PRECIPITATION OR FOG.

INZ001>027-251000-
NORTHERN INDIANA

CITY           SKY/WX    TMP DP  RH WIND       PRES   REMARKS
KNOX*          MOCLDY    68  64  88 W5        29.94S
SOUTH BEND     CLOUDY    70  67  90 NW9       29.95R
GOSHEN         CLOUDY    71  67  87 CALM      29.92F
MONTICELLO*    CLOUDY    70  64  82 S8        29.90F
ANGOLA*        CLEAR     73  64  73 VRB6      29.94R
FORT WAYNE     CLOUDY    71  67  87 S6        29.94S
PERU/GRISSOM   CLOUDY    69  68  96 SW6       29.91F

$$
INZ028>050-251000-
CENTRAL INDIANA

CITY           SKY/WX    TMP DP  RH WIND       PRES   REMARKS
LAFAYETTE      CLOUDY    70  70 100 VRB3      29.91F
KOKOMO*        CLOUDY    72  63  73 S8        29.93F
MUNCIE*        MOCLDY    75  66  73 SW7       29.97S
INDIANAPOLIS   CLOUDY    73  67  81 SW5       29.98F

$$
MIZ043>046-050>051-056>058-064>065-071>073-077>080-251000-
SOUTHWEST LOWER MICHIGAN

CITY           SKY/WX    TMP DP  RH WIND       PRES   REMARKS
BATTLE CREEK   CLOUDY    73  68  84 W8        29.93R
BENTON HARBOR  CLOUDY    76  66  71 W16       29.93S
COLDWATER*     CLOUDY    72  70  93 W6        29.95R
HOLLAND        CLOUDY    74  70  87 W14       29.92S
GRAND RAPIDS   CLOUDY    75  69  81 W10       29.91S
KALAMAZOO      CLOUDY    76  66  71 W8        29.92R
STURGIS*       MOCLDY    69  68  95 NW3       29.94R
THREE RIVERS*  LGT RAIN  72  69  90 W3        29.94R

$$
OHZ001>008-015>018-024>025-251000-
NORTHWEST OHIO

CITY           SKY/WX    TMP DP  RH WIND       PRES   REMARKS
DEFIANCE       CLOUDY    76  66  71 CALM      29.94R
FINDLAY        PTCLDY    79  73  82 W8        29.93R
TOLEDO EXPRESS CLOUDY    73  73 100 S3        29.91F
TOLEDO METCALF MOCLDY    78  75  90 NW5       29.91F
LIMA           CLOUDY    77  76  96 W9        29.96R

$$
AND FOR LAKE MICHIGAN COASTAL AND OPEN LAKE BUOY OBSERVATIONS

STATION/POSITION TEMP    WIND        PRES    VSBY  WAVE
                 AIR SEA DIR/SP/G                  HT/PER
                 (F)     (DEG/KT/KT) (MB)    (MI)  (FT/S)
CALUMET HARBOR    74     230/  6/ 12 1014.0F
MICHIGAN CITY     74     230/ 21/ 23   N/A
BURNS HARBOR      73     250/ 10/ 20 1014.9R
SAINT JOSEPH      75     260/ 11/ 14 1014.2F
SOUTH LAKE BUOY   74 72  230/ 10/ 12 1012.6          2/ 5
4 MI NW BRIDGMAN  74 73  270/ 16/ 21 1013.2F         4/ 4
MICHIGAN CITY     74 74  280/ 14/ 19   N/A           2/ 4

$$
&&




USA.gov is the U.S. government's official web portal to all federal, state and local government web resources and services.